Location: Bli��� Lhota
(48.7570°N, 14.0120°E)
Time: 05:37:59
(UTC+00:00)

ATLAS 2AS CENTAUR R/B - Pass Details

Date: 18 September 2020
Orbit: 939 x 1273 km, 63.7° (Epoch: 19 October)

Event Time Altitude Azimuth Distance (km) Brightness Sun altitude
Rises 21:02:46 0° 226° (SW) 4,204 5.7 -34.0°
Enters shadow 21:04:48 - 228° (SW) 3,513 5.3 -34.2°
Exits shadow 21:11:56 59° 251° (WSW) 1,446 3.3 -34.8°
Maximum altitude 21:13:32 75° 314° (NW) 1,313 3.1 -35.0°
Drops below altitude 10° 21:21:24 10° 40° (NE) 3,212 5.4 -35.7°
Sets 21:24:09 0° 42° (NE) 4,148 6.0 -35.9°
